User: anonymous
Location: Caltech
(34.1382°N, 118.1253°W)
Time: 02:04:17
(UTC-07:00)
Language:

JAS-1B - Orbit

View from above orbital plane
View from above orbital plane
View from above satellite
View from above satellite

Ground track
Ground track

The orbit data is extracted from the following two-line orbital elements,

1 20480U 90013C   14209.82837922 -.00000009  00000-0  59649-4 0  7955
2 20480 099.0472 165.1398 0539440 259.4482 152.4601 12.83394348146475
Epoch (UTC): 28 July 2014 19:52:51
Eccentricity: 0.0539440
inclination: 99.0472°
perigee height: 912 km
apogee height: 1743 km
right ascension of ascending node: 165.1398°
argument of perigee: 259.4482°
revolutions per day: 12.83394348
mean anomaly at epoch: 152.4601°
orbit number at epoch: 14647

The dashed part of the orbit path shows where the satellite is in the earth's shadow,  

DLR